EW2997 Weather Reports


time (UTC)temp
C
wind
direction
speed
KPH
gust
KPH
rain 1hr
cm
rain 24hr
cm
rain mn
cm
humidity
%
barometer
mb
20260906002653 19 96 0.0 0.0 0.00 0.00 0.00 86 1016.3
20260905235651 20 96 0.0 0.0 0.00 0.00 0.00 84 1016.0
20260905232649 22 96 0.0 0.0 0.00 0.00 0.00 74 1015.6
20260905225647 24 94 3.2 3.2 0.00 0.00 0.00 64 1015.6
20260905222642 25 76 1.6 1.6 0.00 0.00 0.00 66 1015.2
20260905215637 26 52 3.2 3.2 0.00 0.00 0.00 60 1014.9
20260905212632 26 42 3.2 3.2 0.00 0.00 0.00 59 1014.9
20260905205630 25 51 0.0 0.0 0.00 0.00 0.00 64 1015.2
20260905202627 26 42 0.0 0.0 0.00 0.00 0.00 58 1015.2
20260905195624 26 54 3.2 3.2 0.00 0.00 0.00 61 1014.9
20260905192622 27 6 3.2 3.2 0.00 0.00 0.00 56 1015.6
20260905185619 26 53 1.6 1.6 0.00 0.00 0.00 62 1015.6
20260905182619 25 78 0.0 0.0 0.00 0.00 0.00 66 1016.0
20260905175614 25 175 3.2 3.2 0.00 0.00 0.00 65 1016.3
20260905172614 25 342 3.2 3.2 0.00 0.00 0.00 66 1016.3
20260905165611 25 162 3.2 3.2 0.00 0.00 0.00 69 1017.0
20260905162607 25 286 0.0 0.0 0.00 0.00 0.00 71 1017.4
20260905155603 24 241 0.0 0.0 0.00 0.00 0.00 73 1017.7
20260905152600 23 66 3.2 3.2 0.00 0.00 0.00 78 1017.4
20260905145556 23 138 0.0 0.0 0.00 0.00 0.00 80 1017.4
20260905142555 23 138 0.0 0.0 0.00 0.00 0.00 82 1017.4
20260905135553 23 139 3.2 3.2 0.00 0.00 0.00 81 1016.7
20260905132548 23 38 0.0 0.0 0.00 0.00 0.00 84 1016.7
20260905125545 23 36 0.0 0.0 0.00 0.00 0.00 86 1017.0
20260905122542 23 222 0.0 0.0 0.00 0.00 0.00 83 1016.3
20260905115537 21 222 0.0 0.0 0.00 0.00 0.00 95 1016.3
20260905112534 20 222 0.0 0.0 0.00 0.00 0.00 96 1016.3
20260905105530 20 222 0.0 0.0 0.00 0.00 0.00 97 1016.3
20260905102529 20 222 0.0 0.0 0.00 0.00 0.00 97 1016.0
20260905095525 20 222 0.0 0.0 0.00 0.00 0.00 97 1015.6
20260905092524 20 222 0.0 0.0 0.00 0.00 0.00 97 1015.6
20260905085524 19 223 0.0 0.0 0.00 0.00 0.00 97 1015.2
20260905082519 20 224 0.0 0.0 0.00 0.00 0.00 97 1016.0
20260905075514 19 224 0.0 0.0 0.00 0.00 0.00 97 1016.0
20260905072513 20 224 0.0 0.0 0.00 0.00 0.00 97 1016.0
20260905065511 19 228 0.0 0.0 0.00 0.00 0.00 97 1016.3
20260905062509 20 226 0.0 0.0 0.00 0.00 0.00 97 1016.7
20260905055505 20 221 0.0 0.0 0.00 0.00 0.00 97 1017.0
20260905052504 20 221 0.0 0.0 0.00 0.00 0.00 97 1017.4
20260905045500 20 221 0.0 0.0 0.00 0.00 0.00 97 1017.4
20260905042456 20 221 0.0 0.0 0.00 0.00 0.00 97 1017.4
20260905035453 21 221 0.0 0.0 0.00 0.00 0.00 97 1017.4
20260905032453 21 221 0.0 0.0 0.00 0.00 0.00 96 1017.4
20260905025452 21 221 0.0 0.0 0.00 0.00 0.00 96 1017.4
20260905022451 21 221 0.0 0.0 0.00 0.00 0.00 96 1017.0
20260905015445 21 221 0.0 0.0 0.00 0.00 0.00 95 1016.7
20260905012445 21 221 0.0 0.0 0.00 0.00 0.00 94 1016.7
20260905005443 22 236 1.6 1.6 0.00 0.00 0.00 94 1017.0